Regional Weather Roundup
Issued by NWS State College, PA

Home | Current Version | Previous Version | Text Only | Print | Product List | Glossary On
Versions: 1 2 3 4 5 6 7 8 9 10 11 12 13 14 15 16 17 18 19 20 21 22 23 24 25 26 27 28 29 30 31 32 33 34 35 36 37 38 39 40 41 42 43 44 45 46 47 48 49 50
000
ASUS41 KCTP 291410
RWRCTP

REGIONAL WEATHER ROUNDUP
NATIONAL WEATHER SERVICE STATE COLLEGE PA
1000 AM EDT TUE JUL 29 2014

Note: "fair" indicates few or no clouds below 12,000 feet with no
significant weather and/or obstructions to visibility.

* = STATION THAT DOES NOT REPORT PRECIPITATION /E.G. RAIN...SNOW...ETC/
    THUNDER OR FOG.

PAZ002>004-007>009-013>016-020>023-029>032-291500-
WESTERN PENNSYLVANIA

CITY           SKY/WX    TMP DP  RH WIND       PRES   REMARKS
ERIE           CLOUDY    65  48  54 NW6       29.97R
MEADVILLE      CLOUDY    58  52  80 CALM      29.99R
FRANKLIN*      CLOUDY    59  52  77 W6        30.00S
NEW CASTLE       N/A     61  53  74 CALM      30.01R
BEAVER COUNTY  CLOUDY    57  52  82 W5        30.01R
BUTLER*        CLOUDY    57  50  77 W6        30.02R
PITTSBURGH INT CLOUDY    58  51  78 W6        30.01R
PITTSBURGH     CLOUDY    58  50  75 W3        30.00S
INDIANA*       CLOUDY    57  52  82 W6        30.04R
LATROBE        CLOUDY    57  55  94 SW9       30.01S
WASHINGTON CO* PTSUNNY   59  50  72 NW5       30.02S
$$

PAZ004>006-010>012-017>019-024>028-033>037-041-042-045-046-049>053-291500-
CENTRAL PENNSYLVANIA

CITY           SKY/WX    TMP DP  RH WIND       PRES   REMARKS
BRADFORD       CLOUDY    55  50  83 CALM      29.98R
DUBOIS         CLOUDY    57  52  83 W5        29.98R
CLEARFIELD     CLOUDY    58  51  78 W5        29.98R
JOHNSTOWN      CLOUDY    53  47  79 W6        30.00R
ALTOONA        SUNNY     60  51  72 NW9       29.99R
STATE COLLEGE  NOT AVBL
WILLIAMSPORT   MOSUNNY   65  51  60 W8        29.93R
SELINSGROVE    MOSUNNY   67  54  63 N8        29.94R
FT INDIANTOWN  SUNNY     67  56  66 W9        29.93S
CAPITAL CITY   PTSUNNY   65  55  70 W9        29.93S
HARRISBURG     MOSUNNY   66  56  70 W9        29.92S
YORK           CLOUDY    65  56  72 N6        29.94R
$$

PAZ038>040-043-044-047-048-054-055-060>062-067>071-291500-
EASTERN PENNSYLVANIA

CITY           SKY/WX    TMP DP  RH WIND       PRES   REMARKS
SCRANTON       PTSUNNY   65  52  62 VRB3      29.92R
MOUNT POCONO   SUNNY     60  48  64 NW8G23    29.92R
ALLENTOWN      PTSUNNY   66  53  63 W6        29.91R
QUAKERTOWN*    SUNNY     66  55  68 NW8       29.92R
READING        MOSUNNY   68  55  63 MISG      29.91S
LANCASTER      MOSUNNY   66  58  75 NW10      29.92S
COATESVILLE    SUNNY     66  66 100 N7        29.93S
POTTSTOWN      SUNNY     67  55  65 W6        29.92R
BLUE BELL      MOSUNNY   68  55  64 NW3       29.90S
DOYLESTOWN     SUNNY     66  55  67 NW7       29.90R
WILLOW GROVE   NOT AVBL
NORTH PHILA    MOSUNNY   70  54  56 NW9       29.91S
PHILADELPHIA   MOSUNNY   70  54  56 NW9       29.90S
$$


USA.gov is the U.S. government's official web portal to all federal, state and local government web resources and services.